Salt Lake City, UT

1:37 AM MDT on May 25, 2017 (GMT -0600)
Salt Lake City International

Weather History for KSLC - January, 2012

Change the Weather History Date:

Wednesday, January 25, 2012

  Actual Average Record
Temperature  
Mean Temperature 39 °F 30 °F  
Max Temperature 46 °F 38 °F 59 °F (1953)
Min Temperature 32 °F 22 °F -22 °F (1949)
Degree Days  
Heating Degree Days 26 35  
Month to date heating degree days 797 894  
Since 1 July heating degree days 3001 3188  
Cooling Degree Days 0 0  
Month to date cooling degree days 0 0  
Year to date cooling degree days 0 0  
Moisture  
Dew Point 25 °F    
Average Humidity 57    
Maximum Humidity 72    
Minimum Humidity 42    
Precipitation  
Precipitation 0.00 in 0.04 in 0.76 in (2009)
Month to date precipitation 1.67 1.02  
Year to date precipitation 1.67 1.02  
Snow  
Snow 0.00 in 0.30 in 13.40 in (1996)
Month to date snowfall 6.9 10.3  
Since 1 July snowfall 12.5 32.5  
Snow Depth 0.00 in    
Sea Level Pressure  
Sea Level Pressure 30.40 in    
Wind  
Wind Speed 9 mph (SSE)    
Max Wind Speed 14 mph    
Max Gust Speed 24 mph    
Visibility 10 miles    
Events      
T = Trace of Precipitation, MM = Missing Value Source: NWS Daily Summary

Daily Weather History Graph

Daily Weather History Graph

Search for Another Location

Airport or City:

Trip Planner

Search our weather history database for the weather conditions in past years. The results will help you decide how hot, cold, wet, or windy it might be!

Date:

Astronomy

Jan. 25, 2012 Rise Set
Actual Time 7:44 AM MST 5:36 PM MST
Civil Twilight 7:14 AM MST 6:05 PM MST
Nautical Twilight 6:41 AM MST 6:39 PM MST
Astronomical Twilight 6:09 AM MST 7:11 PM MST
Moon 8:44 AM MST 8:34 PM MST
Length of Visible Light 10h 50m
Length of Day
9h 51m
Waxing Crescent, 7% of the Moon is Illuminated
Jan 25
Waxing Crescent
Jan 30
First Quarter
Feb 7
Full
Feb 14
Last Quarter
Feb 21
New

Hourly Weather History & Observations

Time (MST) Temp. Windchill Dew Point Humidity Pressure Visibility Wind Dir Wind Speed Gust Speed Precip Events Conditions
12:53 AM 32.0 °F 24.8 °F 24.1 °F 73% 30.45 in 10.0 mi SSE 8.1 mph - N/A   Mostly Cloudy
1:53 AM 32.0 °F 24.8 °F 25.0 °F 75% 30.44 in 10.0 mi SE 8.1 mph - N/A   Overcast
2:53 AM 32.0 °F 27.5 °F 25.0 °F 75% 30.46 in 10.0 mi SSE 4.6 mph - N/A   Overcast
3:53 AM 33.8 °F 27.0 °F 24.8 °F 70% 30.42 in 10.0 mi SSE 8.1 mph - N/A   Overcast
4:53 AM 33.1 °F 30.0 °F 25.0 °F 72% 30.45 in 10.0 mi SSE 3.5 mph 24.2 mph N/A   Overcast
5:53 AM 32.0 °F 26.4 °F 25.0 °F 75% 30.48 in 10.0 mi SSE 5.8 mph - N/A   Overcast
6:53 AM 32.0 °F 24.8 °F 24.1 °F 73% 30.48 in 10.0 mi SSE 8.1 mph - N/A   Overcast
7:53 AM 33.1 °F 25.5 °F 24.1 °F 70% 30.48 in 10.0 mi SSE 9.2 mph - N/A   Overcast
8:53 AM 34.0 °F 26.6 °F 24.1 °F 67% 30.47 in 10.0 mi South 9.2 mph - N/A   Mostly Cloudy
9:53 AM 36.0 °F 28.5 °F 24.1 °F 62% 30.46 in 10.0 mi SSE 10.4 mph - N/A   Mostly Cloudy
10:53 AM 37.0 °F 28.5 °F 24.1 °F 59% 30.45 in 10.0 mi SSE 13.8 mph - N/A   Mostly Cloudy
11:53 AM 41.0 °F 33.9 °F 25.0 °F 53% 30.43 in 10.0 mi South 12.7 mph - N/A   Scattered Clouds
12:53 PM 44.1 °F 38.1 °F 25.0 °F 47% 30.40 in 10.0 mi SSE 11.5 mph - N/A   Scattered Clouds
1:53 PM 46.0 °F 41.0 °F 24.1 °F 42% 30.38 in 10.0 mi South 10.4 mph - N/A   Scattered Clouds
2:53 PM 43.0 °F 36.8 °F 25.0 °F 49% 30.37 in 10.0 mi South 11.5 mph - N/A   Mostly Cloudy
3:53 PM 45.0 °F 41.8 °F 26.1 °F 48% 30.36 in 10.0 mi South 5.8 mph - N/A   Mostly Cloudy
4:53 PM 42.1 °F 36.6 °F 27.0 °F 55% 30.35 in 10.0 mi SSE 9.2 mph - N/A   Mostly Cloudy
5:53 PM 41.0 °F 36.4 °F 26.1 °F 55% 30.35 in 10.0 mi South 6.9 mph - N/A   Mostly Cloudy
6:53 PM 41.0 °F 34.7 °F 27.0 °F 57% 30.35 in 10.0 mi SSE 10.4 mph - N/A   Mostly Cloudy
7:53 PM 39.0 °F 31.8 °F 26.1 °F 60% 30.32 in 10.0 mi SE 11.5 mph - N/A   Mostly Cloudy
8:53 PM 39.0 °F 32.3 °F 26.1 °F 60% 30.35 in 10.0 mi SE 10.4 mph - N/A   Scattered Clouds
9:53 PM 37.9 °F 31.5 °F 26.1 °F 62% 30.34 in 10.0 mi SSE 9.2 mph - N/A   Scattered Clouds
10:53 PM 35.1 °F 29.3 °F 26.1 °F 70% 30.31 in 10.0 mi SE 6.9 mph - N/A   Scattered Clouds
11:53 PM 35.1 °F 30.1 °F 26.1 °F 70% 30.32 in 10.0 mi ESE 5.8 mph - N/A   Partly Cloudy